SL-8 DEB *, 14810

Orbit data source: Space-Track

SL-8 DEB *, 14810 is space debris in LEO originally from a launch on Fri, 28 Aug 1981 UTC launched from the Plesetsk Missile And Space Complex (PKMTR). Debris objects in space refer to the collection of defunct objects orbiting the Earth. Examples of debris include non-operational satellites, rocket bodies, and fragments generated from explosions, collisions, or faulty payload assembly.

Loading next visibility...
Identifier
14810, 1981-084D
Orbit
LEO
Country
Flag of CISCIS
Related business
Manufacturer
Unknown
Mission
Spacecraft
Bus & Motor
Unknown
Mass
Unknown
Launch date (UTC)
1981-08-28 (45 years ago)
Launch vehicle
Unknown
Launch site
Plesetsk Missile And Space Complex (PKMTR)
Object type
Payload
Rocket body
Debris
Shape & HBR
Unknown shape, 0.1 m
Radar Cross Section
Small (<0.1 m²)

Expand to show TLE details & history
Last TLE update: 18 hours ago

TLE from 18 hours ago
0 SL-8 DEB *
1 14810U 81084D   26129.74330485  .00001096  00000-0  26249-3 0  9991
2 14810  73.9490 298.0692 0015317  86.1991 293.9782 14.54720629264456
Epoch: 2026-05-09T17:50Z
TLE epoch observation values (Epoch: 2026-05-09T17:50:21.539Z)
Latitude
19.21055°
Longitude
168.64567°
Altitude
708.021 km
Speed
7.506 km/s
True Right ascension
20h 15m 10s
True Declination
19° 06' 12"
Sunlit
Object was in daylight at epoch
Visualization orbit readout
Latitude
Unknown
Longitude
Unknown
Altitude
Unknown
Speed
Unknown
Apparent Right ascension
Unknown
Apparent Declination
Unknown
Sunlit
N/A
Visualization observer readout
Local Sidereal Time
19:48:31
Azimuth
Unknown
Elevation
Unknown
Doppler factor
Unknown
Orbital elements
Apogee altitude
718.737 km
Perigee altitude
697.029 km
Semi-major axis
7,086.02 km
Eccentricity
0.00153
Inclination
73.949°
RAAN
298.0692°
Arg. of periapsis
86.1991°
True anomaly
293.8177°
Mean anomaly
293.9782°
Eccentric anomaly
293.89796°
Mean motion
3.63864 °/min
Orbital period
98.94 mins
BSTAR
0.00026249
Loading maneuver chart data...
Computing Atmospheric mass density...
Loading historical data...
Loading historical data...
Loading historical data...
Loading historical data...
Loading historical data...
Loading historical data...
Loading historical data...
Other satellites on launch #84 in the year 1981 (1981-08-28 UTC)

Documentation

Showing up to 5 results
|